Overview Statistics Trail Chart Weather Telemetry Raw packets
 

This is the latest recevied weather packets stored in our database for station/object KE5QKR. If no packets are shown the sender has not sent any weather packets the latest 10 day(s).

<< 95 96 97 98 99 100 101 >>
Time Temp. Humidity Pressure Rain* Wind** Luminosity Snow
1777249619 24.44° C 86% 1010.2 hPa 0 mm - 4 W/m² -
1777249315 25° C 85% 1010.2 hPa 0 mm - 6 W/m² -
1777249012 25° C 85% 1010.4 hPa 0 mm - 9 W/m² -
1777248708 25° C 84% 1010.3 hPa 0 mm - 11 W/m² -
1777248405 25° C 82% 1010.1 hPa 0 mm - 12 W/m² -
1777248101 25° C 82% 1010.3 hPa 0 mm - 14 W/m² -
1777247799 25° C 82% 1010 hPa 0 mm - 20 W/m² -
1777247497 25.56° C 82% 1010.3 hPa 0 mm - 28 W/m² -
1777247195 25.56° C 82% 1010.3 hPa 0 mm - 37 W/m² -
1777246892 25.56° C 80% 1010.1 hPa 0 mm - 37 W/m² -
1777246588 26.11° C 79% 1009.9 hPa 0 mm - 40 W/m² -
1777246285 26.11° C 78% 1009.6 hPa 0 mm - 44 W/m² -
1777245982 26.11° C 77% 1009.5 hPa 0 mm - 49 W/m² -
1777245680 26.11° C 77% 1009.8 hPa 0 mm - 51 W/m² -
1777245377 26.11° C 76% 1009.5 hPa 0 mm - 55 W/m² -
1777245077 26.67° C 76% 1009.5 hPa 0 mm - 58 W/m² -
1777244774 26.67° C 77% 1009.4 hPa 0 mm - 70 W/m² -
1777244470 27.22° C 75% 1009.6 hPa 0 mm - 79 W/m² -
1777244170 27.22° C 75% 1009.6 hPa 0 mm - 93 W/m² -
1777243866 27.22° C 74% 1009.7 hPa 0 mm - 74 W/m² -
1777243562 26.67° C 74% 1009.7 hPa 0 mm - 109 W/m² -
1777243257 27.22° C 73% 1010 hPa 0 mm - 107 W/m² -
1777242953 27.78° C 73% 1010 hPa 0 mm - 101 W/m² -
1777242651 27.78° C 72% 1009.9 hPa 0 mm - 125 W/m² -
1777242346 27.78° C 72% 1009.9 hPa 0 mm - 153 W/m² -

* Rain latest hour (hover to see other rain measurements)
** Current wind speed in m/s (hover to see current wind gust speed)